FW5426 Weather Reports


Display with metric or nautical units.
time (UTC)temp
F
wind
direction
speed
MPH
gust
MPH
rain 1hr
in
rain 24hr
in
rain mn
in
humidity
%
barometer
mb
20260507144713 60 5 5.0 10.0 0.00 0.00 0.00 38 1020.6
20260507144206 60 24 5.0 12.0 0.00 0.00 0.00 38 1020.7
20260507143706 60 17 6.0 12.0 0.00 0.00 0.00 38 1020.6
20260507143205 60 57 6.0 11.0 0.00 0.00 0.00 38 1020.6
20260507142705 60 41 6.0 12.0 0.00 0.00 0.00 39 1020.7
20260507142208 60 11 4.0 12.0 0.00 0.00 0.00 39 1020.6
20260507141706 59 43 5.0 10.0 0.00 0.00 0.00 40 1020.7
20260507141209 59 21 6.0 10.0 0.00 0.00 0.00 41 1020.7
20260507140923 58 331 5.0 10.0 0.00 0.00 0.00 41 1020.6
20260507140205 58 5 4.0 9.0 0.00 0.00 0.00 41 1020.6
20260507135706 58 11 5.0 10.0 0.00 0.00 0.00 41 1020.6
20260507135218 57 12 5.0 10.0 0.00 0.00 0.00 41 1020.6
20260507134706 57 30 5.0 10.0 0.00 0.00 0.00 41 1020.6
20260507134207 57 5 5.0 10.0 0.00 0.00 0.00 41 1020.6
20260507133932 57 5 6.0 13.0 0.00 0.00 0.00 40 1020.6
20260507133205 56 10 6.0 13.0 0.00 0.00 0.00 40 1020.5
20260507132706 57 13 5.0 11.0 0.00 0.00 0.00 39 1020.2
20260507132206 56 0 5.0 11.0 0.00 0.00 0.00 39 1020.1
20260507131706 56 15 5.0 11.0 0.00 0.00 0.00 38 1020.0
20260507131207 57 26 5.0 11.0 0.00 0.00 0.00 37 1020.0
20260507130924 56 347 4.0 10.0 0.00 0.00 0.00 37 1020.0
20260507130207 56 13 5.0 10.0 0.00 0.00 0.00 38 1019.9
20260507125705 56 11 4.0 10.0 0.00 0.00 0.00 40 1020.0
20260507125209 55 5 5.0 10.0 0.00 0.00 0.00 41 1019.9
20260507124707 55 20 5.0 11.0 0.00 0.00 0.00 42 1019.8
20260507124205 55 21 5.0 11.0 0.00 0.00 0.00 43 1019.8
20260507123706 54 16 4.0 9.0 0.00 0.00 0.00 43 1019.6
20260507123205 54 0 3.0 9.0 0.00 0.00 0.00 43 1019.7
20260507122706 54 15 3.0 8.0 0.00 0.00 0.00 43 1019.7
20260507122427 54 23 4.0 8.0 0.00 0.00 0.00 43 1019.6
20260507121705 54 339 4.0 11.0 0.00 0.00 0.00 44 1019.6
20260507121205 54 324 4.0 11.0 0.00 0.00 0.00 44 1019.5
20260507120705 54 347 5.0 10.0 0.00 0.00 0.00 44 1019.3
20260507120209 54 355 5.0 11.0 0.00 0.00 0.00 43 1019.3
20260507115710 53 319 5.0 11.0 0.00 0.00 0.00 42 1019.3
20260507115433 53 9 3.0 10.0 0.00 0.00 0.00 41 1019.5
20260507114706 53 332 3.0 9.0 0.00 0.00 0.00 40 1019.2
20260507114208 53 20 4.0 9.0 0.00 0.00 0.00 38 1019.2
20260507113705 53 5 3.0 9.0 0.00 0.00 0.00 37 1019.3
20260507113205 53 5 3.0 9.0 0.00 0.00 0.00 35 1019.2
20260507112705 53 328 4.0 11.0 0.00 0.00 0.00 33 1019.2
20260507112205 53 5 5.0 13.0 0.00 0.00 0.00 32 1019.2
20260507111706 53 32 5.0 13.0 0.00 0.00 0.00 30 1019.1
20260507111209 53 0 5.0 10.0 0.00 0.00 0.00 29 1019.1
20260507110706 53 14 5.0 10.0 0.00 0.00 0.00 28 1018.9
20260507110410 53 5 4.0 9.0 0.00 0.00 0.00 28 1018.9
20260507110403 53 349 4.0 10.0 0.00 0.00 0.00 28 1018.9
20260507105203 54 26 6.0 12.0 0.00 0.00 0.00 27 1018.7
20260507104652 55 37 6.0 12.0 0.00 0.00 0.00 26 1018.8
20260507104150 56 49 3.0 10.0 0.00 0.00 0.00 27 1018.7
20260507104139 57 355 2.0 3.0 0.00 0.00 0.00 27 1018.4
20260507103642 56 330 2.0 3.0 0.00 0.00 0.00 27 1018.3
20260507102650 57 327 1.0 3.0 0.00 0.00 0.00 27 1018.3
20260507102152 57 327 0.0 2.0 0.00 0.00 0.00 27 1018.4
20260507101646 57 327 0.0 2.0 0.00 0.00 0.00 26 1018.4
20260507101143 57 327 1.0 3.0 0.00 0.00 0.00 26 1018.4
20260507100646 57 327 0.0 3.0 0.00 0.00 0.00 26 1018.4
20260507100144 58 309 0.0 2.0 0.00 0.00 0.00 26 1018.4
20260507095641 58 290 2.0 6.0 0.00 0.00 0.00 26 1018.4
20260507095140 58 290 2.0 6.0 0.00 0.00 0.00 25 1018.4
20260507094642 58 289 1.0 4.0 0.00 0.00 0.00 25 1018.4
20260507094358 58 136 1.0 3.0 0.00 0.00 0.00 24 1018.4
20260507093640 58 136 1.0 3.0 0.00 0.00 0.00 24 1018.3
20260507093141 59 103 0.0 0.0 0.00 0.00 0.00 24 1018.3
20260507092637 60 103 0.0 0.0 0.00 0.00 0.00 23 1018.4
20260507092138 60 103 0.0 2.0 0.00 0.00 0.00 22 1018.4
20260507091636 60 103 1.0 2.0 0.00 0.00 0.00 22 1018.3
20260507091136 61 103 1.0 2.0 0.00 0.00 0.00 21 1018.3
20260507090633 61 103 1.0 3.0 0.00 0.00 0.00 20 1018.3
20260507090354 62 103 2.0 7.0 0.00 0.00 0.00 20 1018.3
20260507085637 62 105 3.0 7.0 0.00 0.00 0.00 20 1018.2
20260507085133 62 123 1.0 6.0 0.00 0.00 0.00 19 1018.3
20260507084855 62 175 0.0 2.0 0.00 0.00 0.00 19 1018.2
20260507084133 62 195 0.0 2.0 0.00 0.00 0.00 19 1018.2
20260507083634 62 195 1.0 4.0 0.00 0.00 0.00 18 1018.2
20260507083135 62 80 1.0 4.0 0.00 0.00 0.00 18 1018.2
20260507082634 63 63 3.0 9.0 0.00 0.00 0.00 18 1018.2
20260507082134 63 306 4.0 9.0 0.00 0.00 0.00 18 1018.1
20260507081635 63 219 3.0 9.0 0.00 0.00 0.00 18 1018.1
20260507081133 64 248 3.0 6.0 0.00 0.00 0.00 17 1018.1
20260507080844 65 219 3.0 6.0 0.00 0.00 0.00 17 1018.1
20260507080837 64 228 3.0 5.0 0.00 0.00 0.00 17 1018.1
20260507075855 65 248 4.0 7.0 0.00 0.00 0.00 16 1018.2
20260507075133 66 265 3.0 7.0 0.00 0.00 0.00 16 1018.1
20260507074635 67 299 3.0 8.0 0.00 0.00 0.00 15 1018.2
20260507074128 67 299 4.0 10.0 0.00 0.00 0.00 16 1018.1
20260507073625 67 309 4.0 9.0 0.00 0.00 0.00 15 1018.3
20260507073340 67 338 6.0 11.0 0.00 0.00 0.00 15 1018.3
20260507072610 67 355 5.0 11.0 0.00 0.00 0.00 15 1018.2
20260507072107 67 11 4.0 9.0 0.00 0.00 0.00 15 1018.2
20260507071608 66 9 3.0 9.0 0.00 0.00 0.00 15 1018.3
20260507071106 66 9 3.0 8.0 0.00 0.00 0.00 15 1018.3
20260507070607 66 22 2.0 8.0 0.00 0.00 0.00 15 1018.3
20260507070107 66 0 2.0 5.0 0.00 0.00 0.00 15 1018.2
20260507065607 66 0 1.0 4.0 0.00 0.00 0.00 15 1018.3
20260507065107 66 0 2.0 5.0 0.00 0.00 0.00 15 1018.2
20260507064610 66 17 3.0 8.0 0.00 0.00 0.00 14 1018.2
20260507064106 65 9 2.0 8.0 0.00 0.00 0.00 14 1018.1
20260507063608 65 314 3.0 5.0 0.00 0.00 0.00 15 1018.2
20260507063331 65 309 3.0 7.0 0.00 0.00 0.00 15 1018.1
20260507062607 66 309 3.0 7.0 0.00 0.00 0.00 14 1018.1
20260507062107 66 5 4.0 8.0 0.00 0.00 0.00 14 1018.0
20260507061605 66 18 3.0 8.0 0.00 0.00 0.00 14 1018.0
20260507061546 65 5 2.0 7.0 0.00 0.00 0.00 14 1018.0
20260507060605 66 0 2.0 7.0 0.00 0.00 0.00 14 1018.0
20260507060104 66 42 2.0 7.0 0.00 0.00 0.00 14 1018.0
20260507055601 66 31 2.0 7.0 0.00 0.00 0.00 15 1017.8
20260507055319 66 298 2.0 7.0 0.00 0.00 0.00 14 1017.8
20260507054548 67 349 2.0 8.0 0.00 0.00 0.00 14 1017.7
20260507054050 67 329 3.0 8.0 0.00 0.00 0.00 13 1017.8
20260507053547 66 49 2.0 6.0 0.00 0.00 0.00 14 1017.8
20260507053047 67 303 1.0 4.0 0.00 0.00 0.00 15 1017.9
20260507052810 67 44 1.0 4.0 0.00 0.00 0.00 15 1017.9
20260507052045 68 92 2.0 5.0 0.00 0.00 0.00 14 1017.8
20260507051543 69 68 2.0 6.0 0.00 0.00 0.00 14 1017.9
20260507051042 69 149 2.0 6.0 0.00 0.00 0.00 13 1017.9
20260507050543 69 136 2.0 5.0 0.00 0.00 0.00 13 1017.8
20260507050040 69 123 1.0 5.0 0.00 0.00 0.00 13 1017.8
20260507045539 69 180 1.0 3.0 0.00 0.00 0.00 13 1017.8
20260507045039 70 310 0.0 4.0 0.00 0.00 0.00 12 1017.8
20260507044801 70 310 1.0 4.0 0.00 0.00 0.00 12 1017.9
20260507044039 70 309 2.0 9.0 0.00 0.00 0.00 11 1017.8
20260507043539 70 304 2.0 9.0 0.00 0.00 0.00 11 1017.8
20260507043040 70 303 3.0 10.0 0.00 0.00 0.00 11 1017.7
20260507042535 70 293 3.0 10.0 0.00 0.00 0.00 11 1017.6
20260507042032 70 23 2.0 7.0 0.00 0.00 0.00 12 1017.8
20260507041532 70 311 1.0 7.0 0.00 0.00 0.00 12 1017.7
20260507041031 70 342 1.0 7.0 0.00 0.00 0.00 12 1017.7
20260507040532 70 342 3.0 9.0 0.00 0.00 0.00 12 1017.6
20260507040024 70 323 4.0 9.0 0.00 0.00 0.00 12 1017.6
20260507035519 69 301 3.0 9.0 0.00 0.00 0.00 13 1017.6
20260507035012 69 314 1.0 9.0 0.00 0.00 0.00 14 1017.7
20260507034506 69 331 1.0 4.0 0.00 0.00 0.00 15 1017.6
20260507034007 69 331 1.0 5.0 0.00 0.00 0.00 16 1017.4
20260507033507 68 343 1.0 5.0 0.00 0.00 0.00 16 1017.3
20260507033229 68 5 1.0 3.0 0.00 0.00 0.00 17 1017.3
20260507032504 69 5 0.0 3.0 0.00 0.00 0.00 17 1017.3
20260507032007 69 5 0.0 2.0 0.00 0.00 0.00 16 1017.3
20260507031741 70 5 0.0 1.0 0.00 0.00 0.00 16 1017.2
20260507031002 70 5 0.0 2.0 0.00 0.00 0.00 16 1017.2
20260507030503 70 5 1.0 5.0 0.00 0.00 0.00 15 1017.2
20260507030005 71 5 1.0 8.0 0.00 0.00 0.00 15 1017.1
20260507025505 71 331 0.0 8.0 0.00 0.00 0.00 15 1017.0
20260507025002 71 0 1.0 4.0 0.00 0.00 0.00 15 1017.0
20260507024502 71 0 2.0 5.0 0.00 0.00 0.00 15 1016.9
20260507024003 72 19 2.0 5.0 0.00 0.00 0.00 15 1016.8
20260507023502 72 261 2.0 6.0 0.00 0.00 0.00 14 1016.8
20260507023227 72 261 3.0 9.0 0.00 0.00 0.00 14 1016.7
20260507022502 72 284 3.0 9.0 0.00 0.00 0.00 14 1016.5
20260507022016 72 311 2.0 8.0 0.00 0.00 0.00 14 1016.4
20260507021913 72 304 2.0 6.0 0.00 0.00 0.00 14 1016.4
20260507021906 73 321 3.0 8.0 0.00 0.00 0.00 15 1016.4
20260507020449 73 303 4.0 11.0 0.00 0.00 0.00 15 1016.3
20260507015949 73 321 5.0 11.0 0.00 0.00 0.00 15 1016.3
20260507015448 73 300 5.0 11.0 0.00 0.00 0.00 15 1016.2
20260507014949 73 315 5.0 11.0 0.00 0.00 0.00 15 1016.1
20260507014449 73 306 5.0 11.0 0.00 0.00 0.00 15 1016.1
20260507013951 74 286 4.0 11.0 0.00 0.00 0.00 15 1016.0
20260507013717 74 307 4.0 11.0 0.00 0.00 0.00 15 1016.0
20260507012949 74 307 4.0 12.0 0.00 0.00 0.00 15 1016.0
20260507012711 74 263 5.0 12.0 0.00 0.00 0.00 15 1015.9
20260507011948 74 348 5.0 11.0 0.00 0.00 0.00 14 1015.9
20260507011448 75 319 4.0 11.0 0.00 0.00 0.00 14 1015.8
20260507010947 75 5 5.0 14.0 0.00 0.00 0.00 14 1015.8
20260507010446 75 317 6.0 14.0 0.00 0.00 0.00 14 1015.6
20260507010214 76 296 7.0 13.0 0.00 0.00 0.00 14 1015.5
20260507005446 76 287 8.0 14.0 0.00 0.00 0.00 14 1015.6
20260507004946 76 336 7.0 15.0 0.00 0.00 0.00 14 1015.5
20260507004446 76 304 7.0 15.0 0.00 0.00 0.00 14 1015.5
20260507003947 76 0 8.0 15.0 0.00 0.00 0.00 14 1015.4
20260507003446 76 284 7.0 19.0 0.00 0.00 0.00 14 1015.3
20260507003205 76 311 8.0 19.0 0.00 0.00 0.00 14 1015.3
20260507002707 76 257 9.0 18.0 0.00 0.00 0.00 14 1015.2
20260507001947 76 321 8.0 18.0 0.00 0.00 0.00 14 1015.2
20260507001447 76 315 8.0 15.0 0.00 0.00 0.00 14 1015.2
20260507000946 76 286 9.0 16.0 0.00 0.00 0.00 14 1015.2
20260507000709 76 283 7.0 16.0 0.00 0.00 0.00 14 1015.2
20260506235942 76 317 8.0 16.0 0.00 0.00 0.00 14 1015.2
20260506235706 77 348 10.0 16.0 0.00 0.00 0.00 13 1015.2
20260506234943 77 261 8.0 16.0 0.00 0.00 0.00 14 1015.1
20260506234442 77 314 9.0 14.0 0.00 0.00 0.00 14 1015.1
20260506233942 77 315 10.0 16.0 0.00 0.00 0.00 14 1015.1
20260506233701 77 294 10.0 16.0 0.00 0.00 0.00 13 1015.1
20260506232942 76 330 10.0 19.0 0.00 0.00 0.00 14 1015.0
20260506232443 77 299 10.0 19.0 0.00 0.00 0.00 14 1015.0
20260506231941 77 315 10.0 17.0 0.00 0.00 0.00 14 1015.0
20260506231701 76 294 10.0 17.0 0.00 0.00 0.00 14 1015.0
20260506230940 77 297 9.0 17.0 0.00 0.00 0.00 13 1015.0
20260506230439 77 299 7.0 20.0 0.00 0.00 0.00 14 1015.0
20260506225941 77 274 9.0 20.0 0.00 0.00 0.00 14 1015.0
20260506225440 77 309 9.0 18.0 0.00 0.00 0.00 14 1015.1
20260506224940 78 265 7.0 15.0 0.00 0.00 0.00 14 1015.0
20260506224440 77 300 7.0 14.0 0.00 0.00 0.00 15 1015.1
20260506223940 76 299 9.0 19.0 0.00 0.00 0.00 15 1015.1
20260506223440 76 323 10.0 19.0 0.00 0.00 0.00 15 1015.1
20260506222940 76 281 10.0 19.0 0.00 0.00 0.00 15 1015.1
20260506222441 76 311 12.0 21.0 0.00 0.00 0.00 14 1015.2
20260506221933 77 336 11.0 25.0 0.00 0.00 0.00 14 1015.1
20260506221432 77 315 11.0 25.0 0.00 0.00 0.00 14 1015.1
20260506220931 77 310 12.0 20.0 0.00 0.00 0.00 14 1015.2
20260506220432 77 259 11.0 20.0 0.00 0.00 0.00 14 1015.3
20260506215933 76 288 10.0 20.0 0.00 0.00 0.00 14 1015.2
20260506215431 77 280 10.0 21.0 0.00 0.00 0.00 14 1015.4
20260506214932 77 226 10.0 21.0 0.00 0.00 0.00 14 1015.3
20260506214639 75 301 13.0 26.0 0.00 0.00 0.00 14 1015.5
20260506214629 76 220 11.0 20.0 0.00 0.00 0.00 14 1015.2
20260506213431 76 306 14.0 26.0 0.00 0.00 0.00 14 1015.3
20260506213155 77 304 11.0 25.0 0.00 0.00 0.00 14 1015.4
20260506212432 77 270 10.0 19.0 0.00 0.00 0.00 14 1015.5
20260506211932 77 242 10.0 20.0 0.00 0.00 0.00 14 1015.5
20260506211432 77 272 9.0 20.0 0.00 0.00 0.00 14 1015.6
20260506210931 76 225 10.0 22.0 0.00 0.00 0.00 14 1015.8
20260506210430 76 279 14.0 29.0 0.00 0.00 0.00 15 1015.8
20260506205931 75 258 14.0 29.0 0.00 0.00 0.00 15 1015.9
20260506205430 75 243 12.0 23.0 0.00 0.00 0.00 15 1016.0
20260506204931 76 246 12.0 19.0 0.00 0.00 0.00 15 1016.1
20260506204432 76 228 10.0 19.0 0.00 0.00 0.00 15 1016.1
20260506204416 76 273 10.0 19.0 0.00 0.00 0.00 15 1016.2
20260506203430 76 244 11.0 24.0 0.00 0.00 0.00 15 1016.2
20260506202931 76 242 11.0 24.0 0.00 0.00 0.00 15 1016.1
20260506202430 76 274 10.0 19.0 0.00 0.00 0.00 15 1016.2
20260506201931 75 243 8.0 16.0 0.00 0.00 0.00 15 1016.1
20260506201433 75 326 11.0 27.0 0.00 0.00 0.00 15 1016.2
20260506200933 75 266 12.0 27.0 0.00 0.00 0.00 14 1016.3
20260506200431 74 252 11.0 19.0 0.00 0.00 0.00 15 1016.2
20260506195931 75 307 11.0 19.0 0.00 0.00 0.00 16 1016.4
20260506195430 74 244 11.0 19.0 0.00 0.00 0.00 16 1016.4
20260506194931 75 273 12.0 24.0 0.00 0.00 0.00 17 1016.4
20260506194431 74 259 11.0 24.0 0.00 0.00 0.00 17 1016.4
20260506193930 74 271 9.0 27.0 0.00 0.00 0.00 18 1016.5
20260506193916 74 313 9.0 27.0 0.00 0.00 0.00 17 1016.7
20260506193158 74 304 11.0 22.0 0.00 0.00 0.00 17 1016.5
20260506192649 74 267 11.0 22.0 0.00 0.00 0.00 17 1016.8
20260506191931 74 259 9.0 16.0 0.00 0.00 0.00 18 1016.7
20260506191430 73 266 10.0 18.0 0.00 0.00 0.00 19 1016.8
20260506190934 73 230 12.0 25.0 0.00 0.00 0.00 20 1016.8
20260506190432 73 268 11.0 25.0 0.00 0.00 0.00 18 1016.9
20260506185932 73 245 9.0 18.0 0.00 0.00 0.00 18 1016.9
20260506185430 73 273 8.0 18.0 0.00 0.00 0.00 19 1017.0
20260506185155 72 246 12.0 23.0 0.00 0.00 0.00 20 1017.0
20260506184430 73 237 13.0 23.0 0.00 0.00 0.00 19 1017.0
20260506183931 73 232 10.0 32.0 0.00 0.00 0.00 19 1016.9
20260506183430 73 242 9.0 32.0 0.00 0.00 0.00 20 1017.1
20260506182931 72 267 8.0 17.0 0.00 0.00 0.00 20 1017.1
20260506182430 72 289 10.0 19.0 0.00 0.00 0.00 20 1017.1
20260506181931 72 265 12.0 20.0 0.00 0.00 0.00 21 1017.1
20260506181654 72 248 12.0 20.0 0.00 0.00 0.00 22 1017.2
20260506180922 71 262 12.0 21.0 0.00 0.00 0.00 20 1017.3
20260506180415 71 241 12.0 24.0 0.00 0.00 0.00 21 1017.4
20260506175909 71 213 11.0 24.0 0.00 0.00 0.00 23 1017.3
20260506175401 71 262 11.0 19.0 0.00 0.00 0.00 22 1017.3
20260506174902 71 259 10.0 19.0 0.00 0.00 0.00 23 1017.3
20260506174402 71 261 9.0 16.0 0.00 0.00 0.00 23 1017.4
20260506173902 70 263 8.0 27.0 0.00 0.00 0.00 24 1017.4
20260506173630 70 283 8.0 27.0 0.00 0.00 0.00 23 1017.3
20260506172902 70 270 8.0 16.0 0.00 0.00 0.00 24 1017.4
20260506172401 70 271 8.0 16.0 0.00 0.00 0.00 24 1017.4
20260506171902 69 223 7.0 16.0 0.00 0.00 0.00 24 1017.4
20260506171623 69 231 7.0 18.0 0.00 0.00 0.00 26 1017.6
20260506170901 69 258 7.0 18.0 0.00 0.00 0.00 26 1017.6
20260506170401 68 311 8.0 16.0 0.00 0.00 0.00 27 1017.6
20260506165901 68 241 9.0 15.0 0.00 0.00 0.00 27 1017.7
20260506165626 69 315 8.0 16.0 0.00 0.00 0.00 27 1017.7
20260506164900 68 271 7.0 16.0 0.00 0.00 0.00 27 1017.7
20260506164401 68 323 8.0 17.0 0.00 0.00 0.00 27 1017.7
20260506163902 68 308 7.0 17.0 0.00 0.00 0.00 27 1017.7
20260506163356 68 266 8.0 20.0 0.00 0.00 0.00 28 1017.7
20260506162850 68 280 9.0 21.0 0.00 0.00 0.00 29 1017.7
20260506162349 67 236 7.0 21.0 0.00 0.00 0.00 29 1017.7
20260506161848 67 320 7.0 17.0 0.00 0.00 0.00 30 1017.7
20260506161610 67 312 8.0 17.0 0.00 0.00 0.00 30 1017.7
20260506160847 67 309 8.0 16.0 0.00 0.00 0.00 31 1017.9
20260506160348 66 281 8.0 19.0 0.00 0.00 0.00 31 1017.8
20260506155848 66 283 8.0 19.0 0.00 0.00 0.00 32 1017.9
20260506155612 66 229 7.0 16.0 0.00 0.00 0.00 31 1017.8
20260506154848 66 323 6.0 16.0 0.00 0.00 0.00 31 1017.9
20260506154348 66 338 6.0 12.0 0.00 0.00 0.00 31 1017.8
20260506153850 66 281 8.0 18.0 0.00 0.00 0.00 31 1017.8
20260506153347 66 304 8.0 18.0 0.00 0.00 0.00 32 1017.8
20260506153110 65 306 8.0 16.0 0.00 0.00 0.00 32 1017.9
20260506152348 65 323 9.0 16.0 0.00 0.00 0.00 32 1017.7
20260506151848 65 278 10.0 18.0 0.00 0.00 0.00 32 1017.8
20260506151348 65 339 8.0 18.0 0.00 0.00 0.00 32 1017.9
20260506151116 65 283 6.0 16.0 0.00 0.00 0.00 32 1017.7
20260506150348 65 227 5.0 15.0 0.00 0.00 0.00 33 1017.7
20260506145847 65 272 5.0 13.0 0.00 0.00 0.00 32 1017.7
20260506145346 65 283 6.0 15.0 0.00 0.00 0.00 32 1017.8